| time (UTC) | temp C | wind direction | speed KPH | gust KPH | rain 1hr cm | rain 24hr cm | rain mn cm | humidity % | barometer mb |
| 20260901233102 | 22 | 211 | 9.7 | 14.5 | 0.00 | 0.00 | 0.00 | 25 | 1015.1 |
| 20260901233056 | 22 | 202 | 11.3 | 16.1 | 0.00 | 0.00 | 0.00 | 31 | 1015.1 |
| 20260901232055 | 22 | 193 | 9.7 | 16.1 | 0.00 | 0.00 | 0.00 | 29 | 1015.2 |
| 20260901231555 | 22 | 202 | 9.7 | 16.1 | 0.00 | 0.00 | 0.00 | 36 | 1015.2 |
| 20260901231055 | 22 | 197 | 9.7 | 14.5 | 0.00 | 0.00 | 0.00 | 41 | 1015.3 |
| 20260901230555 | 22 | 213 | 9.7 | 14.5 | 0.00 | 0.00 | 0.00 | 47 | 1015.3 |
| 20260901230055 | 21 | 200 | 9.7 | 16.1 | 0.00 | 0.00 | 0.00 | 47 | 1015.3 |
| 20260901225555 | 21 | 198 | 9.7 | 16.1 | 0.00 | 0.00 | 0.00 | 39 | 1015.3 |
| 20260901225059 | 21 | 193 | 9.7 | 17.7 | 0.00 | 0.00 | 0.00 | 59 | 1015.3 |
| 20260901225055 | 21 | 200 | 11.3 | 16.1 | 0.00 | 0.00 | 0.00 | 50 | 1015.4 |
| 20260901224055 | 21 | 200 | 9.7 | 17.7 | 0.00 | 0.00 | 0.00 | 57 | 1015.3 |
| 20260901223555 | 21 | 173 | 11.3 | 16.1 | 0.00 | 0.00 | 0.00 | 61 | 1015.4 |
| 20260901223055 | 22 | 213 | 11.3 | 16.1 | 0.00 | 0.00 | 0.00 | 61 | 1015.4 |
| 20260901222556 | 21 | 198 | 11.3 | 16.1 | 0.00 | 0.00 | 0.00 | 57 | 1015.4 |
| 20260901222056 | 21 | 199 | 11.3 | 16.1 | 0.00 | 0.00 | 0.00 | 47 | 1015.4 |
| 20260901221555 | 21 | 207 | 9.7 | 16.1 | 0.00 | 0.00 | 0.00 | 47 | 1015.4 |
| 20260901221055 | 21 | 200 | 11.3 | 16.1 | 0.00 | 0.00 | 0.00 | 48 | 1015.6 |
| 20260901220556 | 22 | 203 | 11.3 | 20.9 | 0.00 | 0.00 | 0.00 | 54 | 1015.6 |
| 20260901220056 | 22 | 198 | 11.3 | 20.9 | 0.00 | 0.00 | 0.00 | 53 | 1015.6 |
| 20260901215556 | 22 | 200 | 11.3 | 19.3 | 0.00 | 0.00 | 0.00 | 56 | 1015.7 |
| 20260901215055 | 22 | 167 | 11.3 | 19.3 | 0.00 | 0.00 | 0.00 | 53 | 1015.7 |
| 20260901214559 | 22 | 192 | 9.7 | 17.7 | 0.00 | 0.00 | 0.00 | 56 | 1015.9 |
| 20260901214555 | 22 | 217 | 9.7 | 16.1 | 0.00 | 0.00 | 0.00 | 51 | 1015.7 |
| 20260901213554 | 22 | 170 | 8.0 | 17.7 | 0.00 | 0.00 | 0.00 | 54 | 1015.9 |
| 20260901213054 | 22 | 205 | 8.0 | 14.5 | 0.00 | 0.00 | 0.00 | 55 | 1015.8 |
| 20260901212553 | 22 | 231 | 9.7 | 16.1 | 0.00 | 0.00 | 0.00 | 45 | 1015.8 |
| 20260901212052 | 22 | 199 | 9.7 | 16.1 | 0.00 | 0.00 | 0.00 | 52 | 1015.8 |
| 20260901211551 | 22 | 168 | 8.0 | 16.1 | 0.00 | 0.00 | 0.00 | 46 | 1015.9 |
| 20260901211049 | 22 | 192 | 9.7 | 17.7 | 0.00 | 0.00 | 0.00 | 49 | 1015.9 |
| 20260901210549 | 22 | 209 | 9.7 | 17.7 | 0.00 | 0.00 | 0.00 | 45 | 1016.0 |
| 20260901210048 | 22 | 175 | 9.7 | 19.3 | 0.00 | 0.00 | 0.00 | 44 | 1016.0 |
| 20260901205547 | 22 | 165 | 9.7 | 19.3 | 0.00 | 0.00 | 0.00 | 44 | 1016.0 |
| 20260901205047 | 22 | 150 | 9.7 | 17.7 | 0.00 | 0.00 | 0.00 | 51 | 1016.2 |
| 20260901204547 | 22 | 190 | 9.7 | 17.7 | 0.00 | 0.00 | 0.00 | 52 | 1016.2 |
| 20260901204047 | 22 | 151 | 9.7 | 17.7 | 0.00 | 0.00 | 0.00 | 51 | 1016.3 |
| 20260901203547 | 21 | 187 | 9.7 | 19.3 | 0.00 | 0.00 | 0.00 | 55 | 1016.3 |
| 20260901203051 | 21 | 161 | 11.3 | 17.7 | 0.00 | 0.00 | 0.00 | 54 | 1016.3 |
| 20260901203047 | 21 | 186 | 9.7 | 19.3 | 0.00 | 0.00 | 0.00 | 55 | 1016.3 |
| 20260901202654 | 21 | 142 | 11.3 | 17.7 | 0.00 | 0.00 | 0.00 | 51 | 1016.4 |
| 20260901201546 | 21 | 134 | 11.3 | 19.3 | 0.00 | 0.00 | 0.00 | 49 | 1016.4 |
| 20260901201047 | 21 | 174 | 11.3 | 19.3 | 0.00 | 0.00 | 0.00 | 49 | 1016.4 |
| 20260901200545 | 22 | 135 | 9.7 | 17.7 | 0.00 | 0.00 | 0.00 | 55 | 1016.5 |
| 20260901200045 | 21 | 183 | 9.7 | 17.7 | 0.00 | 0.00 | 0.00 | 56 | 1016.6 |
| 20260901195545 | 21 | 205 | 9.7 | 17.7 | 0.00 | 0.00 | 0.00 | 58 | 1016.6 |
| 20260901195049 | 21 | 146 | 9.7 | 17.7 | 0.00 | 0.00 | 0.00 | 52 | 1016.6 |
| 20260901195045 | 21 | 184 | 11.3 | 17.7 | 0.00 | 0.00 | 0.00 | 55 | 1016.6 |
| 20260901194045 | 21 | 179 | 9.7 | 17.7 | 0.00 | 0.00 | 0.00 | 59 | 1016.6 |
| 20260901193550 | 21 | 124 | 9.7 | 16.1 | 0.00 | 0.00 | 0.00 | 65 | 1016.6 |
| 20260901193545 | 21 | 160 | 9.7 | 16.1 | 0.00 | 0.00 | 0.00 | 64 | 1016.6 |
| 20260901192544 | 21 | 159 | 9.7 | 16.1 | 0.00 | 0.00 | 0.00 | 67 | 1016.7 |
| 20260901192045 | 20 | 172 | 9.7 | 17.7 | 0.00 | 0.00 | 0.00 | 63 | 1016.7 |
| 20260901191549 | 21 | 164 | 8.0 | 14.5 | 0.00 | 0.00 | 0.00 | 69 | 1016.8 |
| 20260901191545 | 20 | 163 | 9.7 | 17.7 | 0.00 | 0.00 | 0.00 | 61 | 1016.8 |
| 20260901190545 | 21 | 173 | 6.4 | 14.5 | 0.00 | 0.00 | 0.00 | 66 | 1016.8 |
| 20260901190048 | 21 | 166 | 8.0 | 16.1 | 0.00 | 0.00 | 0.00 | 68 | 1016.7 |
| 20260901190044 | 21 | 234 | 8.0 | 12.9 | 0.00 | 0.00 | 0.00 | 65 | 1016.7 |
| 20260901185045 | 21 | 150 | 9.7 | 16.1 | 0.00 | 0.00 | 0.00 | 60 | 1016.7 |
| 20260901184544 | 21 | 180 | 9.7 | 16.1 | 0.00 | 0.00 | 0.00 | 63 | 1016.7 |
| 20260901184045 | 21 | 169 | 8.0 | 16.1 | 0.00 | 0.00 | 0.00 | 64 | 1016.6 |
| 20260901183545 | 20 | 163 | 8.0 | 14.5 | 0.00 | 0.00 | 0.00 | 59 | 1016.7 |
| 20260901183045 | 21 | 183 | 8.0 | 14.5 | 0.00 | 0.00 | 0.00 | 72 | 1016.8 |
| 20260901182544 | 21 | 149 | 6.4 | 14.5 | 0.00 | 0.00 | 0.00 | 67 | 1016.8 |
| 20260901182049 | 21 | 153 | 6.4 | 14.5 | 0.00 | 0.00 | 0.00 | 63 | 1016.7 |
| 20260901182045 | 21 | 175 | 8.0 | 14.5 | 0.00 | 0.00 | 0.00 | 71 | 1016.7 |
| 20260901181050 | 21 | 165 | 8.0 | 16.1 | 0.00 | 0.00 | 0.00 | 66 | 1016.7 |
| 20260901181045 | 21 | 138 | 8.0 | 14.5 | 0.00 | 0.00 | 0.00 | 66 | 1016.7 |
| 20260901180045 | 21 | 142 | 9.7 | 16.1 | 0.00 | 0.00 | 0.00 | 67 | 1016.6 |
| 20260901175545 | 20 | 148 | 6.4 | 14.5 | 0.00 | 0.00 | 0.00 | 69 | 1016.6 |
| 20260901175050 | 21 | 101 | 3.2 | 11.3 | 0.00 | 0.00 | 0.00 | 69 | 1016.5 |
| 20260901175046 | 21 | 130 | 4.8 | 12.9 | 0.00 | 0.00 | 0.00 | 68 | 1016.6 |
| 20260901174044 | 21 | 124 | 4.8 | 11.3 | 0.00 | 0.00 | 0.00 | 67 | 1016.5 |
| 20260901173547 | 20 | 139 | 3.2 | 11.3 | 0.00 | 0.00 | 0.00 | 70 | 1016.4 |
| 20260901173543 | 20 | 170 | 4.8 | 11.3 | 0.00 | 0.00 | 0.00 | 69 | 1016.5 |
| 20260901172542 | 20 | 134 | 4.8 | 9.7 | 0.00 | 0.00 | 0.00 | 71 | 1016.5 |
| 20260901172042 | 20 | 163 | 4.8 | 9.7 | 0.00 | 0.00 | 0.00 | 74 | 1016.4 |
| 20260901171542 | 20 | 146 | 3.2 | 8.0 | 0.00 | 0.00 | 0.00 | 73 | 1016.3 |
| 20260901171042 | 20 | 128 | 3.2 | 9.7 | 0.00 | 0.00 | 0.00 | 72 | 1016.4 |
| 20260901170542 | 19 | 88 | 3.2 | 9.7 | 0.00 | 0.00 | 0.00 | 76 | 1016.4 |
| 20260901170042 | 19 | 134 | 3.2 | 8.0 | 0.00 | 0.00 | 0.00 | 78 | 1016.4 |
| 20260901165542 | 18 | 136 | 3.2 | 9.7 | 0.00 | 0.00 | 0.00 | 79 | 1016.4 |
| 20260901165042 | 18 | 121 | 4.8 | 9.7 | 0.00 | 0.00 | 0.00 | 80 | 1016.3 |
| 20260901164541 | 18 | 151 | 4.8 | 9.7 | 0.00 | 0.00 | 0.00 | 79 | 1016.3 |
| 20260901164042 | 18 | 160 | 4.8 | 11.3 | 0.00 | 0.00 | 0.00 | 79 | 1016.2 |
| 20260901163542 | 18 | 155 | 6.4 | 14.5 | 0.00 | 0.00 | 0.00 | 78 | 1016.0 |
| 20260901163042 | 18 | 158 | 9.7 | 16.1 | 0.00 | 0.00 | 0.00 | 78 | 1016.0 |
| 20260901162546 | 18 | 133 | 6.4 | 16.1 | 0.00 | 0.00 | 0.00 | 76 | 1015.9 |
| 20260901162542 | 18 | 121 | 9.7 | 16.1 | 0.00 | 0.00 | 0.00 | 77 | 1015.9 |
| 20260901162149 | 18 | 128 | 6.4 | 14.5 | 0.00 | 0.00 | 0.00 | 76 | 1015.8 |
| 20260901161042 | 17 | 114 | 8.0 | 14.5 | 0.00 | 0.00 | 0.00 | 77 | 1015.9 |
| 20260901160542 | 17 | 121 | 6.4 | 14.5 | 0.00 | 0.00 | 0.00 | 75 | 1015.9 |
| 20260901160039 | 17 | 137 | 6.4 | 14.5 | 0.00 | 0.00 | 0.00 | 73 | 1015.9 |
| 20260901155538 | 17 | 143 | 4.8 | 12.9 | 0.00 | 0.00 | 0.00 | 79 | 1015.9 |
| 20260901155038 | 16 | 132 | 4.8 | 12.9 | 0.00 | 0.00 | 0.00 | 78 | 1015.8 |
| 20260901154538 | 16 | 150 | 4.8 | 12.9 | 0.00 | 0.00 | 0.00 | 81 | 1015.8 |
| 20260901154038 | 16 | 118 | 4.8 | 11.3 | 0.00 | 0.00 | 0.00 | 80 | 1015.8 |
| 20260901153538 | 16 | 194 | 6.4 | 11.3 | 0.00 | 0.00 | 0.00 | 83 | 1015.8 |
| 20260901153036 | 17 | 172 | 6.4 | 11.3 | 0.00 | 0.00 | 0.00 | 81 | 1015.8 |
| 20260901152537 | 17 | 162 | 4.8 | 11.3 | 0.00 | 0.00 | 0.00 | 77 | 1015.7 |
| 20260901152036 | 17 | 159 | 4.8 | 12.9 | 0.00 | 0.00 | 0.00 | 69 | 1015.8 |
| 20260901151536 | 17 | 162 | 6.4 | 14.5 | 0.00 | 0.00 | 0.00 | 71 | 1015.6 |
| 20260901151042 | 17 | 168 | 6.4 | 20.9 | 0.00 | 0.00 | 0.00 | 66 | 1015.6 |
| 20260901151037 | 17 | 149 | 6.4 | 14.5 | 0.00 | 0.00 | 0.00 | 67 | 1015.5 |
| 20260901150644 | 17 | 163 | 11.3 | 20.9 | 0.00 | 0.00 | 0.00 | 66 | 1015.4 |
| 20260901145537 | 17 | 103 | 14.5 | 20.9 | 0.00 | 0.00 | 0.00 | 66 | 1015.3 |
| 20260901145036 | 17 | 120 | 14.5 | 20.9 | 0.00 | 0.00 | 0.00 | 64 | 1015.3 |
| 20260901144536 | 17 | 114 | 14.5 | 20.9 | 0.00 | 0.00 | 0.00 | 68 | 1015.3 |
| 20260901144036 | 17 | 113 | 12.9 | 20.9 | 0.00 | 0.00 | 0.00 | 68 | 1015.2 |
| 20260901143536 | 16 | 109 | 9.7 | 17.7 | 0.00 | 0.00 | 0.00 | 70 | 1015.2 |
| 20260901143041 | 17 | 142 | 12.9 | 19.3 | 0.00 | 0.00 | 0.00 | 69 | 1015.2 |
| 20260901143036 | 17 | 139 | 9.7 | 16.1 | 0.00 | 0.00 | 0.00 | 73 | 1015.3 |
| 20260901142036 | 17 | 113 | 14.5 | 19.3 | 0.00 | 0.00 | 0.00 | 65 | 1015.1 |
| 20260901141534 | 18 | 119 | 14.5 | 19.3 | 0.00 | 0.00 | 0.00 | 59 | 1015.0 |
| 20260901141034 | 18 | 113 | 12.9 | 19.3 | 0.00 | 0.00 | 0.00 | 60 | 1015.1 |
| 20260901140534 | 18 | 111 | 14.5 | 19.3 | 0.00 | 0.00 | 0.00 | 55 | 1015.0 |
| 20260901140033 | 18 | 106 | 14.5 | 19.3 | 0.00 | 0.00 | 0.00 | 54 | 1014.9 |
| 20260901135534 | 18 | 103 | 14.5 | 19.3 | 0.00 | 0.00 | 0.00 | 45 | 1014.8 |
| 20260901135034 | 18 | 100 | 14.5 | 19.3 | 0.00 | 0.00 | 0.00 | 41 | 1014.9 |
| 20260901134539 | 17 | 94 | 16.1 | 19.3 | 0.00 | 0.00 | 0.00 | 54 | 1014.6 |
| 20260901134534 | 18 | 98 | 14.5 | 19.3 | 0.00 | 0.00 | 0.00 | 48 | 1014.8 |
| 20260901134137 | 18 | 85 | 14.5 | 19.3 | 0.00 | 0.00 | 0.00 | 55 | 1014.6 |
| 20260901133032 | 17 | 86 | 16.1 | 19.3 | 0.00 | 0.00 | 0.00 | 53 | 1014.6 |
| 20260901132532 | 17 | 93 | 14.5 | 17.7 | 0.00 | 0.00 | 0.00 | 53 | 1014.8 |
| 20260901132032 | 17 | 103 | 14.5 | 17.7 | 0.00 | 0.00 | 0.00 | 57 | 1014.8 |
| 20260901131532 | 17 | 105 | 14.5 | 17.7 | 0.00 | 0.00 | 0.00 | 61 | 1014.8 |
| 20260901131032 | 17 | 108 | 14.5 | 17.7 | 0.00 | 0.00 | 0.00 | 51 | 1014.6 |
| 20260901130532 | 17 | 106 | 16.1 | 17.7 | 0.00 | 0.00 | 0.00 | 52 | 1014.6 |
| 20260901130032 | 18 | 107 | 14.5 | 17.7 | 0.00 | 0.00 | 0.00 | 42 | 1014.8 |
| 20260901125530 | 18 | 105 | 14.5 | 17.7 | 0.00 | 0.00 | 0.00 | 37 | 1014.6 |
| 20260901125033 | 18 | 106 | 16.1 | 19.3 | 0.00 | 0.00 | 0.00 | 36 | 1014.5 |
| 20260901125029 | 18 | 108 | 16.1 | 17.7 | 0.00 | 0.00 | 0.00 | 36 | 1014.5 |
| 20260901124030 | 18 | 103 | 16.1 | 19.3 | 0.00 | 0.00 | 0.00 | 36 | 1014.5 |
| 20260901123531 | 18 | 113 | 16.1 | 19.3 | 0.00 | 0.00 | 0.00 | 31 | 1014.5 |
| 20260901123032 | 18 | 113 | 16.1 | 19.3 | 0.00 | 0.00 | 0.00 | 30 | 1014.4 |
| 20260901122530 | 18 | 111 | 16.1 | 19.3 | 0.00 | 0.00 | 0.00 | 31 | 1014.4 |
| 20260901122030 | 18 | 115 | 14.5 | 17.7 | 0.00 | 0.00 | 0.00 | 31 | 1014.5 |
| 20260901121530 | 18 | 131 | 14.5 | 17.7 | 0.00 | 0.00 | 0.00 | 33 | 1014.4 |
| 20260901121138 | 17 | 146 | 9.7 | 16.1 | 0.00 | 0.00 | 0.00 | 26 | 1014.4 |
| 20260901121033 | 18 | 130 | 12.9 | 17.7 | 0.00 | 0.00 | 0.00 | 23 | 1014.4 |
| 20260901121029 | 18 | 132 | 14.5 | 17.7 | 0.00 | 0.00 | 0.00 | 30 | 1014.3 |
| 20260901120136 | 17 | 155 | 11.3 | 16.1 | 0.00 | 0.00 | 0.00 | 31 | 1014.4 |
| 20260901115029 | 17 | 162 | 11.3 | 14.5 | 0.00 | 0.00 | 0.00 | 30 | 1014.4 |
| 20260901114530 | 17 | 168 | 11.3 | 16.1 | 0.00 | 0.00 | 0.00 | 34 | 1014.4 |
| 20260901114030 | 17 | 173 | 11.3 | 16.1 | 0.00 | 0.00 | 0.00 | 30 | 1014.4 |
| 20260901113530 | 17 | 173 | 12.9 | 19.3 | 0.00 | 0.00 | 0.00 | 38 | 1014.5 |
| 20260901113030 | 18 | 161 | 12.9 | 19.3 | 0.00 | 0.00 | 0.00 | 30 | 1014.5 |
| 20260901112527 | 18 | 167 | 14.5 | 22.5 | 0.00 | 0.00 | 0.00 | 28 | 1014.5 |
| 20260901112028 | 18 | 149 | 14.5 | 22.5 | 0.00 | 0.00 | 0.00 | 17 | 1014.4 |
| 20260901111530 | 18 | 140 | 11.3 | 19.3 | 0.00 | 0.00 | 0.00 | 19 | 1014.4 |
| 20260901111526 | 18 | 157 | 12.9 | 17.7 | 0.00 | 0.00 | 0.00 | 24 | 1014.5 |
| 20260901110526 | 18 | 157 | 14.5 | 19.3 | 0.00 | 0.00 | 0.00 | 17 | 1014.5 |
| 20260901110025 | 18 | 142 | 14.5 | 19.3 | 0.00 | 0.00 | 0.00 | 19 | 1014.5 |
| 20260901105528 | 18 | 142 | 16.1 | 20.9 | 0.00 | 0.00 | 0.00 | 17 | 1014.5 |
| 20260901105524 | 18 | 146 | 14.5 | 20.9 | 0.00 | 0.00 | 0.00 | 20 | 1014.5 |
| 20260901104522 | 19 | 138 | 17.7 | 20.9 | 0.00 | 0.00 | 0.00 | 14 | 1014.5 |
| 20260901104023 | 18 | 130 | 14.5 | 20.9 | 0.00 | 0.00 | 0.00 | 12 | 1014.5 |
| 20260901103526 | 18 | 129 | 12.9 | 16.1 | 0.00 | 0.00 | 0.00 | 22 | 1014.6 |
| 20260901103522 | 18 | 134 | 11.3 | 16.1 | 0.00 | 0.00 | 0.00 | 13 | 1014.5 |
| 20260901102522 | 18 | 136 | 14.5 | 16.1 | 0.00 | 0.00 | 0.00 | 14 | 1014.6 |
| 20260901102022 | 18 | 132 | 11.3 | 16.1 | 0.00 | 0.00 | 0.00 | 14 | 1014.6 |
| 20260901101523 | 18 | 132 | 9.7 | 16.1 | 0.00 | 0.00 | 0.00 | 19 | 1014.6 |
| 20260901101022 | 17 | 136 | 11.3 | 16.1 | 0.00 | 0.00 | 0.00 | 32 | 1014.8 |
| 20260901100526 | 17 | 140 | 12.9 | 17.7 | 0.00 | 0.00 | 0.00 | 39 | 1014.8 |
| 20260901100522 | 17 | 138 | 12.9 | 17.7 | 0.00 | 0.00 | 0.00 | 34 | 1014.8 |
| 20260901095522 | 17 | 126 | 12.9 | 20.9 | 0.00 | 0.00 | 0.00 | 50 | 1014.8 |
| 20260901095131 | 17 | 140 | 14.5 | 19.3 | 0.00 | 0.00 | 0.00 | 56 | 1014.8 |
| 20260901095022 | 17 | 148 | 14.5 | 20.9 | 0.00 | 0.00 | 0.00 | 53 | 1014.8 |
| 20260901094526 | 17 | 140 | 11.3 | 19.3 | 0.00 | 0.00 | 0.00 | 59 | 1014.6 |
| 20260901094522 | 17 | 145 | 11.3 | 19.3 | 0.00 | 0.00 | 0.00 | 57 | 1014.8 |
| 20260901093022 | 17 | 138 | 14.5 | 19.3 | 0.00 | 0.00 | 0.00 | 55 | 1014.9 |
| 20260901092522 | 17 | 139 | 14.5 | 22.5 | 0.00 | 0.00 | 0.00 | 50 | 1014.6 |
| 20260901092022 | 18 | 130 | 14.5 | 22.5 | 0.00 | 0.00 | 0.00 | 47 | 1014.6 |
| 20260901091522 | 18 | 119 | 16.1 | 22.5 | 0.00 | 0.00 | 0.00 | 47 | 1014.6 |
| 20260901091026 | 18 | 123 | 16.1 | 22.5 | 0.00 | 0.00 | 0.00 | 34 | 1014.8 |
| 20260901091022 | 18 | 121 | 16.1 | 22.5 | 0.00 | 0.00 | 0.00 | 36 | 1014.6 |
| 20260901090027 | 18 | 119 | 16.1 | 20.9 | 0.00 | 0.00 | 0.00 | 35 | 1014.8 |
| 20260901085522 | 18 | 116 | 16.1 | 19.3 | 0.00 | 0.00 | 0.00 | 31 | 1015.0 |
| 20260901085022 | 19 | 121 | 12.9 | 19.3 | 0.00 | 0.00 | 0.00 | 32 | 1014.9 |
| 20260901084522 | 19 | 125 | 9.7 | 17.7 | 0.00 | 0.00 | 0.00 | 26 | 1015.0 |
| 20260901084026 | 19 | 128 | 9.7 | 16.1 | 0.00 | 0.00 | 0.00 | 17 | 1015.0 |
| 20260901084022 | 19 | 130 | 11.3 | 16.1 | 0.00 | 0.00 | 0.00 | 20 | 1015.0 |
| 20260901083630 | 19 | 130 | 11.3 | 16.1 | 0.00 | 0.00 | 0.00 | 22 | 1014.9 |
| 20260901082519 | 19 | 128 | 11.3 | 16.1 | 0.00 | 0.00 | 0.00 | 21 | 1015.0 |
| 20260901082019 | 18 | 132 | 11.3 | 17.7 | 0.00 | 0.00 | 0.00 | 17 | 1014.9 |
| 20260901081519 | 18 | 122 | 12.9 | 17.7 | 0.00 | 0.00 | 0.00 | 26 | 1015.0 |
| 20260901081019 | 18 | 121 | 11.3 | 16.1 | 0.00 | 0.00 | 0.00 | 20 | 1015.1 |
| 20260901080519 | 18 | 128 | 11.3 | 16.1 | 0.00 | 0.00 | 0.00 | 23 | 1015.0 |
| 20260901080019 | 18 | 115 | 14.5 | 17.7 | 0.00 | 0.00 | 0.00 | 23 | 1015.1 |
| 20260901075520 | 18 | 121 | 12.9 | 17.7 | 0.00 | 0.00 | 0.00 | 24 | 1015.0 |
| 20260901075025 | 19 | 106 | 9.7 | 17.7 | 0.00 | 0.00 | 0.00 | 25 | 1015.1 |
| 20260901075020 | 19 | 115 | 11.3 | 14.5 | 0.00 | 0.00 | 0.00 | 24 | 1015.1 |
| 20260901074018 | 19 | 111 | 8.0 | 17.7 | 0.00 | 0.00 | 0.00 | 23 | 1015.2 |
| 20260901073517 | 19 | 123 | 11.3 | 17.7 | 0.00 | 0.00 | 0.00 | 24 | 1015.2 |
| 20260901073018 | 19 | 126 | 14.5 | 17.7 | 0.00 | 0.00 | 0.00 | 25 | 1015.2 |
| 20260901072517 | 19 | 117 | 12.9 | 17.7 | 0.00 | 0.00 | 0.00 | 28 | 1015.2 |
| 20260901072017 | 19 | 103 | 9.7 | 16.1 | 0.00 | 0.00 | 0.00 | 39 | 1015.2 |
| 20260901071516 | 19 | 94 | 8.0 | 12.9 | 0.00 | 0.00 | 0.00 | 47 | 1015.1 |
| 20260901071016 | 19 | 90 | 8.0 | 12.9 | 0.00 | 0.00 | 0.00 | 53 | 1015.1 |
| 20260901070515 | 20 | 93 | 11.3 | 14.5 | 0.00 | 0.00 | 0.00 | 55 | 1015.1 |
| 20260901070017 | 20 | 95 | 11.3 | 14.5 | 0.00 | 0.00 | 0.00 | 54 | 1015.1 |
| 20260901070013 | 20 | 92 | 9.7 | 12.9 | 0.00 | 0.00 | 0.00 | 54 | 1015.1 |
| 20260901065013 | 20 | 101 | 8.0 | 12.9 | 0.00 | 0.00 | 0.00 | 46 | 1015.0 |
| 20260901064511 | 20 | 105 | 8.0 | 12.9 | 0.00 | 0.00 | 0.00 | 48 | 1015.0 |
| 20260901064012 | 20 | 110 | 9.7 | 14.5 | 0.00 | 0.00 | 0.00 | 43 | 1015.0 |
| 20260901063512 | 20 | 107 | 9.7 | 12.9 | 0.00 | 0.00 | 0.00 | 40 | 1014.9 |
| 20260901063508 | 20 | 109 | 9.7 | 14.5 | 0.00 | 0.00 | 0.00 | 41 | 1014.9 |
| 20260901062509 | 20 | 105 | 11.3 | 14.5 | 0.00 | 0.00 | 0.00 | 44 | 1014.9 |
| 20260901062007 | 20 | 104 | 9.7 | 14.5 | 0.00 | 0.00 | 0.00 | 42 | 1014.9 |
| 20260901061507 | 20 | 101 | 6.4 | 14.5 | 0.00 | 0.00 | 0.00 | 38 | 1014.8 |
| 20260901061006 | 20 | 112 | 6.4 | 11.3 | 0.00 | 0.00 | 0.00 | 39 | 1014.8 |
| 20260901060509 | 21 | 134 | 6.4 | 11.3 | 0.00 | 0.00 | 0.00 | 29 | 1014.8 |
| 20260901060505 | 21 | 150 | 8.0 | 11.3 | 0.00 | 0.00 | 0.00 | 27 | 1014.9 |
| 20260901055502 | 21 | 156 | 8.0 | 11.3 | 0.00 | 0.00 | 0.00 | 26 | 1014.8 |
| 20260901055007 | 22 | 159 | 11.3 | 14.5 | 0.00 | 0.00 | 0.00 | 9 | 1014.6 |
| 20260901055002 | 22 | 159 | 9.7 | 14.5 | 0.00 | 0.00 | 0.00 | 24 | 1014.8 |
| 20260901054003 | 22 | 192 | 11.3 | 16.1 | 0.00 | 0.00 | 0.00 | 1 | 1014.6 |
| 20260901053506 | 22 | 190 | 9.7 | 12.9 | 0.00 | 0.00 | 0.00 | 1 | 1014.6 |
| 20260901053502 | 22 | 184 | 11.3 | 16.1 | 0.00 | 0.00 | 0.00 | 2 | 1014.5 |
| 20260901052503 | 21 | 194 | 8.0 | 11.3 | 0.00 | 0.00 | 0.00 | 2 | 1014.6 |
| 20260901052004 | 21 | 164 | 6.4 | 8.0 | 0.00 | 0.00 | 0.00 | 4 | 1014.8 |
| 20260901051503 | 21 | 158 | 4.8 | 9.7 | 0.00 | 0.00 | 0.00 | 5 | 1014.8 |
| 20260901051002 | 22 | 152 | 6.4 | 9.7 | 0.00 | 0.00 | 0.00 | 14 | 1014.8 |
| 20260901050502 | 22 | 167 | 4.8 | 8.0 | 0.00 | 0.00 | 0.00 | 6 | 1014.6 |
| 20260901050003 | 22 | 180 | 6.4 | 9.7 | 0.00 | 0.00 | 0.00 | 3 | 1014.6 |
| 20260901045507 | 22 | 175 | 9.7 | 11.3 | 0.00 | 0.00 | 0.00 | 6 | 1014.6 |
| 20260901045503 | 22 | 178 | 6.4 | 11.3 | 0.00 | 0.00 | 0.00 | 5 | 1014.6 |
| 20260901045111 | 22 | 188 | 11.3 | 11.3 | 0.00 | 0.00 | 0.00 | 2 | 1014.6 |
| 20260901044002 | 22 | 188 | 11.3 | 14.5 | 0.00 | 0.00 | 0.00 | 2 | 1014.6 |
| 20260901043502 | 22 | 188 | 11.3 | 14.5 | 0.00 | 0.00 | 0.00 | 1 | 1014.6 |
| 20260901043003 | 22 | 201 | 11.3 | 14.5 | 0.00 | 0.00 | 0.00 | 1 | 1014.5 |
| 20260901042503 | 23 | 221 | 11.3 | 14.5 | 0.00 | 0.00 | 0.00 | 1 | 1014.4 |
| 20260901042007 | 23 | 211 | 11.3 | 14.5 | 0.00 | 0.00 | 0.00 | 1 | 1014.3 |
| 20260901042003 | 23 | 215 | 11.3 | 14.5 | 0.00 | 0.00 | 0.00 | 1 | 1014.4 |
| 20260901041002 | 23 | 216 | 11.3 | 14.5 | 0.00 | 0.00 | 0.00 | 1 | 1014.3 |
| 20260901040502 | 23 | 210 | 11.3 | 14.5 | 0.00 | 0.00 | 0.00 | 1 | 1014.3 |
| 20260901040003 | 22 | 211 | 9.7 | 12.9 | 0.00 | 0.00 | 0.00 | 1 | 1014.2 |
| 20260901035502 | 22 | 215 | 9.7 | 11.3 | 0.00 | 0.00 | 0.00 | 1 | 1014.1 |
| 20260901035002 | 22 | 225 | 9.7 | 11.3 | 0.00 | 0.00 | 0.00 | 1 | 1014.1 |
| 20260901034502 | 22 | 221 | 9.7 | 11.3 | 0.00 | 0.00 | 0.00 | 1 | 1014.1 |
| 20260901034003 | 22 | 214 | 9.7 | 11.3 | 0.00 | 0.00 | 0.00 | 1 | 1014.1 |
| 20260901033508 | 22 | 219 | 8.0 | 11.3 | 0.00 | 0.00 | 0.00 | 3 | 1013.8 |
| 20260901033502 | 22 | 219 | 9.7 | 11.3 | 0.00 | 0.00 | 0.00 | 1 | 1013.9 |
| 20260901032502 | 22 | 213 | 9.7 | 11.3 | 0.00 | 0.00 | 0.00 | 8 | 1013.9 |
| 20260901032006 | 22 | 205 | 9.7 | 12.9 | 0.00 | 0.00 | 0.00 | 6 | 1013.9 |
| 20260901032002 | 22 | 211 | 9.7 | 12.9 | 0.00 | 0.00 | 0.00 | 7 | 1013.9 |
| 20260901031003 | 22 | 213 | 9.7 | 11.3 | 0.00 | 0.00 | 0.00 | 5 | 1013.8 |
| 20260901030502 | 23 | 224 | 8.0 | 11.3 | 0.00 | 0.00 | 0.00 | 4 | 1013.8 |
| 20260901030002 | 23 | 227 | 8.0 | 12.9 | 0.00 | 0.00 | 0.00 | 4 | 1013.8 |
| 20260901025502 | 22 | 238 | 9.7 | 14.5 | 0.00 | 0.00 | 0.00 | 2 | 1013.8 |
| 20260901025006 | 22 | 248 | 11.3 | 16.1 | 0.00 | 0.00 | 0.00 | 4 | 1013.7 |
| 20260901025002 | 22 | 261 | 9.7 | 14.5 | 0.00 | 0.00 | 0.00 | 2 | 1013.7 |
| 20260901024002 | 22 | 228 | 12.9 | 16.1 | 0.00 | 0.00 | 0.00 | 3 | 1013.7 |
| 20260901023506 | 22 | 252 | 12.9 | 17.7 | 0.00 | 0.00 | 0.00 | 10 | 1013.8 |
| 20260901023502 | 22 | 252 | 12.9 | 17.7 | 0.00 | 0.00 | 0.00 | 5 | 1013.7 |
| 20260901023111 | 22 | 241 | 12.9 | 17.7 | 0.00 | 0.00 | 0.00 | 10 | 1013.7 |
| 20260901022002 | 22 | 229 | 11.3 | 17.7 | 0.00 | 0.00 | 0.00 | 10 | 1013.7 |
| 20260901021507 | 22 | 223 | 11.3 | 14.5 | 0.00 | 0.00 | 0.00 | 16 | 1013.7 |
| 20260901021502 | 22 | 230 | 11.3 | 12.9 | 0.00 | 0.00 | 0.00 | 13 | 1013.7 |
| 20260901021110 | 22 | 221 | 11.3 | 16.1 | 0.00 | 0.00 | 0.00 | 18 | 1013.7 |
| 20260901020609 | 22 | 215 | 11.3 | 16.1 | 0.00 | 0.00 | 0.00 | 16 | 1013.7 |
| 20260901015502 | 22 | 219 | 12.9 | 16.1 | 0.00 | 0.00 | 0.00 | 28 | 1013.7 |
| 20260901015002 | 22 | 204 | 12.9 | 16.1 | 0.00 | 0.00 | 0.00 | 21 | 1013.7 |
| 20260901014500 | 22 | 197 | 12.9 | 17.7 | 0.00 | 0.00 | 0.00 | 24 | 1013.7 |
| 20260901014000 | 22 | 202 | 11.3 | 17.7 | 0.00 | 0.00 | 0.00 | 17 | 1013.7 |
| 20260901013500 | 22 | 219 | 11.3 | 16.1 | 0.00 | 0.00 | 0.00 | 24 | 1013.7 |
| 20260901013000 | 22 | 205 | 11.3 | 16.1 | 0.00 | 0.00 | 0.00 | 18 | 1013.7 |
| 20260901012459 | 22 | 203 | 11.3 | 16.1 | 0.00 | 0.00 | 0.00 | 28 | 1013.7 |
| 20260901012000 | 22 | 199 | 12.9 | 16.1 | 0.00 | 0.00 | 0.00 | 31 | 1013.7 |
| 20260901011500 | 22 | 202 | 12.9 | 16.1 | 0.00 | 0.00 | 0.00 | 29 | 1013.7 |
| 20260901011001 | 22 | 197 | 11.3 | 16.1 | 0.00 | 0.00 | 0.00 | 32 | 1013.7 |
| 20260901010501 | 22 | 200 | 11.3 | 14.5 | 0.00 | 0.00 | 0.00 | 39 | 1013.8 |
| 20260901005959 | 22 | 224 | 11.3 | 16.1 | 0.00 | 0.00 | 0.00 | 41 | 1013.8 |
| 20260901005500 | 22 | 206 | 11.3 | 16.1 | 0.00 | 0.00 | 0.00 | 35 | 1013.8 |
| 20260901005000 | 22 | 200 | 11.3 | 17.7 | 0.00 | 0.00 | 0.00 | 39 | 1013.8 |
| 20260901004500 | 22 | 215 | 11.3 | 17.7 | 0.00 | 0.00 | 0.00 | 32 | 1013.8 |
| 20260901004000 | 23 | 221 | 11.3 | 16.1 | 0.00 | 0.00 | 0.00 | 30 | 1013.8 |
| 20260901003500 | 22 | 203 | 11.3 | 16.1 | 0.00 | 0.00 | 0.00 | 34 | 1013.9 |
| 20260901002959 | 22 | 203 | 11.3 | 14.5 | 0.00 | 0.00 | 0.00 | 27 | 1013.8 |
| 20260901002506 | 22 | 216 | 11.3 | 16.1 | 0.00 | 0.00 | 0.00 | 39 | 1013.9 |
| 20260901002501 | 22 | 232 | 11.3 | 14.5 | 0.00 | 0.00 | 0.00 | 40 | 1013.8 |
| 20260901001500 | 22 | 219 | 11.3 | 16.1 | 0.00 | 0.00 | 0.00 | 49 | 1013.9 |
| 20260901000959 | 22 | 214 | 12.9 | 17.7 | 0.00 | 0.00 | 0.00 | 43 | 1013.9 |
| 20260901000505 | 22 | 198 | 11.3 | 17.7 | 0.00 | 0.00 | 0.00 | 37 | 1014.0 |
| 20260901000500 | 22 | 216 | 12.9 | 17.7 | 0.00 | 0.00 | 0.00 | 52 | 1014.0 |
| 20260901000108 | 22 | 213 | 11.3 | 17.7 | 0.00 | 0.00 | 0.00 | 43 | 1014.0 |
| 20260831234959 | 22 | 216 | 11.3 | 17.7 | 0.00 | 0.00 | 0.00 | 53 | 1013.9 |
| 20260831234459 | 23 | 234 | 11.3 | 16.1 | 0.00 | 0.00 | 0.00 | 59 | 1013.9 |
| 20260831234000 | 23 | 188 | 9.7 | 16.1 | 0.00 | 0.00 | 0.00 | 48 | 1014.0 |
| 20260831233505 | 23 | 216 | 9.7 | 16.1 | 0.00 | 0.00 | 0.00 | 51 | 1014.0 |
| 20260831233500 | 23 | 202 | 9.7 | 16.1 | 0.00 | 0.00 | 0.00 | 51 | 1014.0 |